Change the Weather History Date:

Friday, June 27, 2014

  Actual Average Record
Temperature  
Mean Temperature 69 °F 74 °F  
Max Temperature 80 °F 88 °F 104 °F (1933)
Min Temperature 57 °F 59 °F 41 °F (1985)
Degree Days  
Heating Degree Days 0 0  
Month to date heating degree days 29 34  
Since 1 June heating degree days 29 34  
Cooling Degree Days 4 9  
Month to date cooling degree days 140 157  
Year to date cooling degree days 201 201  
Since 1 June cooling degree days 140 157  
Growing Degree Days 18 (Base 50)    
Moisture  
Dew Point 59 °F    
Average Humidity 78    
Maximum Humidity 93    
Minimum Humidity 62    
Precipitation  
Precipitation 0.60 in 0.10 in 1.52 in (1915)
Sea Level Pressure  
Sea Level Pressure 29.69 in    
Wind  
Wind Speed 10 mph (ESE)    
Max Wind Speed 43 mph    
Max Gust Speed 57 mph    
Visibility 8 miles    
Events Rain , Thunderstorm    
T = Trace of Precipitation, MM = Missing Value Source: NWS Daily Summary

Daily Weather History Graph

Daily Weather History Graph

Search for Another Location

Airport or City:

Trip Planner

Search our weather history database for the weather conditions in past years. The results will help you decide how hot, cold, wet, or windy it might be!

Date:

Astronomy

Jun. 27, 2014 Rise Set
Actual Time 5:17 AM MDT 8:21 PM MDT
Civil Twilight 4:44 AM MDT 8:54 PM MDT
Nautical Twilight 4:02 AM MDT 9:36 PM MDT
Astronomical Twilight 3:12 AM MDT 10:26 PM MDT
Moon 5:50 AM MDT (6/27) 8:27 PM MDT (6/27)
Length of Visible Light 16h 09m
Length of Day
15h 03m
New Moon, 0% of the Moon is Illuminated
Jun 27
New Moon
Jul 5
First Quarter
Jul 12
Full
Jul 18
Last Quarter
Jul 26
New

Hourly Weather History & Observations

Time (MDT) Temp. Heat Index Dew Point Humidity Pressure Visibility Wind Dir Wind Speed Gust Speed Precip Events Conditions
12:01 AM 59.0 °F - 55.9 °F 90% 29.86 in 0.8 mi WNW 15.0 mph 33.4 mph 0.22 in Rain , Thunderstorm Heavy Thunderstorms and Rain
12:08 AM 60.1 °F - 57.9 °F 93% 29.83 in 2.0 mi West 12.7 mph - 0.26 in Rain , Thunderstorm Heavy Thunderstorms and Rain
12:18 AM 60.1 °F - 57.9 °F 93% 29.85 in 5.0 mi West 5.8 mph - 0.29 in Rain , Thunderstorm Light Thunderstorms and Rain
12:37 AM 60.1 °F - 57.0 °F 90% 29.84 in 5.0 mi Calm Calm - 0.34 in Rain , Thunderstorm Rain
12:53 AM 60.1 °F - 57.9 °F 93% 29.74 in 7.0 mi ESE 3.5 mph - 0.36 in Rain , Thunderstorm Light Rain
1:01 AM 60.1 °F - 57.9 °F 93% 29.81 in 10.0 mi SE 4.6 mph - 0.01 in Rain Light Rain
1:53 AM 61.0 °F - 55.9 °F 83% 29.58 in 10.0 mi NNE 15.0 mph - 0.02 in   Clear
2:53 AM 64.9 °F - 54.0 °F 68% 29.60 in 10.0 mi SSE 15.0 mph 21.9 mph N/A   Clear
3:01 AM 64.0 °F - 54.0 °F 70% 29.71 in 10.0 mi South 15.0 mph 24.2 mph N/A   Clear
3:53 AM 60.1 °F - 55.0 °F 83% 29.62 in 10.0 mi SSE 12.7 mph - N/A   Clear
4:53 AM 59.0 °F - 55.9 °F 90% 29.62 in 10.0 mi South 3.5 mph - N/A   Clear
5:53 AM 57.2 °F - 55.4 °F 94% 29.70 in 10.0 mi Calm Calm - N/A   Clear
6:53 AM 60.1 °F - 55.9 °F 86% 29.61 in 10.0 mi Calm Calm - N/A   Partly Cloudy
7:53 AM 64.0 °F - 59.0 °F 84% 29.62 in 10.0 mi North 6.9 mph - N/A   Partly Cloudy
8:05 AM 64.0 °F - 59.0 °F 84% 29.71 in 10.0 mi NNE 6.9 mph - N/A   Mostly Cloudy
8:35 AM 66.0 °F - 60.1 °F 81% 29.71 in 10.0 mi East 4.6 mph - N/A   Overcast
8:53 AM 66.9 °F - 60.1 °F 79% 29.63 in 10.0 mi Calm Calm - N/A   Overcast
9:53 AM 70.0 °F - 63.0 °F 78% 29.62 in 10.0 mi Calm Calm - N/A   Overcast
10:18 AM 71.1 °F - 64.0 °F 78% 29.72 in 10.0 mi ESE 3.5 mph - N/A   Overcast
10:53 AM 72.0 °F - 64.9 °F 78% 29.65 in 10.0 mi ENE 5.8 mph - N/A   Overcast
11:46 AM 73.0 °F - 64.9 °F 76% 29.73 in 10.0 mi East 8.1 mph - N/A   Overcast
11:53 AM 73.9 °F - 64.9 °F 73% 29.65 in 10.0 mi East 6.9 mph - N/A   Mostly Cloudy
12:33 PM 75.0 °F - 66.0 °F 73% 29.71 in 10.0 mi ENE 8.1 mph - N/A   Mostly Cloudy
12:53 PM 75.0 °F - 64.9 °F 71% 29.65 in 10.0 mi ESE 10.4 mph - N/A   Mostly Cloudy
1:03 PM 75.9 °F - 64.9 °F 69% 29.72 in 10.0 mi East 8.1 mph - N/A   Mostly Cloudy
1:11 PM 75.9 °F - 64.0 °F 67% 29.72 in 10.0 mi ENE 4.6 mph - N/A   Overcast
1:53 PM 77.0 °F - 64.9 °F 66% 29.62 in 10.0 mi Variable 5.8 mph - N/A   Mostly Cloudy
2:53 PM 75.0 °F - 66.0 °F 73% 29.60 in 10.0 mi East 10.4 mph - N/A   Mostly Cloudy
3:53 PM 80.1 °F 82.3 °F 66.9 °F 64% 29.55 in 10.0 mi East 11.5 mph - N/A   Mostly Cloudy
4:53 PM 75.9 °F - 68.0 °F 76% 29.54 in 10.0 mi ESE 11.5 mph - 0.01 in Rain Light Rain
5:36 PM 75.9 °F - 66.9 °F 74% 29.60 in 10.0 mi East 5.8 mph - 0.00 in Thunderstorm Scattered Clouds
5:53 PM 61.0 °F - 55.0 °F 81% 29.60 in 2.5 mi South 13.8 mph 41.4 mph 0.06 in Rain , Thunderstorm Thunderstorms and Rain
6:00 PM 61.0 °F - 55.9 °F 83% 29.67 in 5.0 mi SW 24.2 mph 28.8 mph 0.03 in Rain , Thunderstorm Thunderstorms and Rain
6:23 PM 61.0 °F - 57.0 °F 87% 29.70 in 5.0 mi SSW 27.6 mph 35.7 mph 0.10 in Rain , Thunderstorm Rain
6:32 PM 61.0 °F - 57.0 °F 87% 29.73 in 2.5 mi SW 33.4 mph 49.5 mph 0.17 in Rain , Thunderstorm Thunderstorms and Rain
6:42 PM 57.9 °F - 54.0 °F 87% 29.76 in - West 32.2 mph 40.3 mph 0.19 in Thunderstorm Thunderstorm
6:46 PM 57.0 °F - 53.1 °F 87% 29.76 in 1.5 mi West 33.4 mph 41.4 mph 0.22 in Rain Heavy Rain
6:53 PM 57.0 °F - 53.1 °F 87% 29.72 in 2.5 mi WNW 33.4 mph 42.6 mph 0.26 in Rain Rain
7:00 PM 57.9 °F - 53.1 °F 84% 29.77 in 3.0 mi WNW 27.6 mph 43.7 mph 0.03 in Rain Rain
7:53 PM 59.0 °F - 54.0 °F 83% 29.65 in 9.0 mi NW 24.2 mph 35.7 mph 0.19 in Rain Light Rain
8:53 PM 61.0 °F - 55.0 °F 81% 29.61 in 10.0 mi NNW 23.0 mph 31.1 mph 0.03 in   Mostly Cloudy
9:53 PM 61.0 °F - 55.9 °F 83% 29.68 in 10.0 mi NNW 6.9 mph - 0.02 in Rain Light Rain
10:53 PM 60.1 °F - 57.0 °F 90% 29.68 in 10.0 mi NE 8.1 mph - 0.02 in   Overcast
11:53 PM 61.0 °F - 55.9 °F 83% 29.70 in 10.0 mi SSW 6.9 mph - 0.00 in   Partly Cloudy